Voltar ao catálogo

MIYAN WULIAOYUAN

AtivoComunicaçõesSSO
NORAD 63991·PAYLOAD·🇨🇳 China
Este nome de satélite ainda não foi confirmado por fontes oficiais.

Lançado May 14, 2025 de Jiuquan Satellite Launch Center

Loading…

Próximas Passagens (próximas 24 horas)

TLE

AtualizadoSource: Space-Track

Época: Sep 14, 2026, 22:18 UTC

1 63991U 25100K   26257.92920465  .00011792  00000-0  52816-3 0  9990
2 63991  97.3557 328.6546 0009091  14.6043 345.5454 15.21369135 74262

Acompanhe MIYAN WULIAOYUAN em tempo real com AllMySat

Download on the App Store